Flag for Japan Weather past 2 weeks in Hamamatsu, Japan

Now
81 °F

Warm.


Feels Like: 87 °F
Forecast: 75 / 85 °F
Wind: 3 mph from Northeast

Location: Omaezaki

Current Time: Aug 2, 2014 at 10:41:04 AM

Latest Report: Aug 2, 2014 at 10:00 AM


Visibility: 12 mi

Pressure: 29.89 "Hg

Humidity: 81%

Dew point: 75 °F

Location of HamamatsuLocation

Historic Weather in Hamamatsu — Graph

°F

Hamamatsu temperature yesterday

Maximum temperature yesterday: 85 °F (at 11:00 AM)
Minimum temperature yesterday: 76 °F (at 4:00 AM)
Average temperature yesterday: 80 °F

Past Weeks' High & Low Weather Summary

 TemperatureHumidityPressure
High85 °F (Jul 24, 7:00 PM)100% (Jul 18, 10:00 PM)30.04 "Hg (Jul 18, 10:00 PM)
Low69 °F (Jul 19, 3:00 PM)62% (Jul 28, 12:00 AM)29.63 "Hg (Jul 24, 3:00 PM)
Average78 °F89%29.86 "Hg
* Reported Jul 18 9:00 AM — Aug 2 9:00 AM, Hamamatsu, Weather by CustomWeather, © 2014

Note: Actual official high and low records may vary slightly from our data, if they occured in-between our weather recording intervals... More about our weather records

Advertising

Hamamatsu weather history for previous 24 hours

 ConditionsComfort  
Time TempWeatherWind HumidityBarometerVisibility
9:00 AM
Aug 2
79 °FWarm.5 mph88%29.89 "Hg11 mi
8:00 AM78 °FWarm.5 mph91%29.88 "Hg11 mi
7:00 AM79 °FWarm.3 mph100%29.88 "Hg1 mi
6:00 AM77 °FDuststorm.5 mph100%29.88 "Hg1 mi
5:00 AM78 °FFog.5 mph100%29.86 "Hg1 mi
4:00 AM78 °FFog.9 mph100%29.85 "Hg2 mi
3:00 AM78 °FFog.10 mph100%29.84 "Hg1 mi
2:00 AM77 °FFog.8 mph91%29.86 "Hg2 mi
1:00 AM76 °FMild.5 mph89%29.88 "Hg12 mi
12:00 AM78 °FFog.2 mph100%29.92 "Hg2 mi
11:00 PM
Aug 1
78 °FDuststorm.2 mph100%29.92 "Hg1 mi
10:00 PM78 °FFog.6 mph100%29.90 "Hg1 mi
9:00 PM79 °FFog.6 mph100%29.91 "Hg1 mi
8:00 PM79 °FFog.6 mph100%29.89 "Hg1 mi
7:00 PM79 °FFog.9 mph100%29.87 "Hg2 mi
6:00 PM80 °FFog.12 mph100%29.86 "Hg3 mi
5:00 PM81 °FFog.7 mph97%29.85 "Hg3 mi
4:00 PM82 °FFog.8 mph93%29.85 "Hg4 mi
3:00 PM82 °FFog.12 mph92%29.86 "Hg5 mi
2:00 PM83 °FWarm.10 mph86%29.87 "Hg7 mi
1:00 PM83 °FWarm.10 mph87%29.88 "Hg6 mi
12:00 PM83 °FWarm.8 mph85%29.90 "Hg7 mi
11:00 AM85 °FFog.8 mph82%29.91 "Hg6 mi
10:00 AM82 °FFog.7 mph89%29.92 "Hg4 mi
Weather by CustomWeather, © 2014

See weather overviewHow to use our weather pages